Location: Ladirat
(44.8151°N, 1.9702°E)
Time: 21:10:14
(UTC+00:00)

Cosmos 1777 Rocket - Pass Details

Date: 15 May 2026
Orbit: 754 x 771 km, 74.0° (Epoch: 8 June)

Event Time Altitude Azimuth Distance (km) Brightness Sun altitude
Rises 21:33:48 0° 337° (NNW) 3,238 8.8 -19.2°
Reaches altitude 10° 21:36:11 10° 337° (NNW) 2,306 7.7 -19.4°
Maximum altitude 21:41:25 79° 251° (WSW) 778 4.0 -19.9°
Enters shadow 21:43:21 40° 171° (S) 1,118 4.4 -20.1°
